Flag for U.S.A. Weather past 2 weeks in Citrus Heights, California, U.S.A.

Now
55 °F

Passing clouds.


Feels Like: 54 °F
Forecast: 56 / 74 °F
Wind: 6 mph from East

Location: Mather Field

Current Time: Oct 23, 2014 at 5:15:55 AM

Latest Report: Oct 23, 2014 at 4:50 AM


Visibility: 10 mi

Pressure: 30.02 "Hg

Humidity: 63%

Dew point: 43 °F

Location of Citrus HeightsLocation

Historic Weather in Citrus Heights — Graph

°F

Citrus Heights temperature yesterday

Maximum temperature yesterday: 73 °F (at 2:50 PM)
Minimum temperature yesterday: 45 °F (at 6:45 AM)
Average temperature yesterday: 58 °F

Past Weeks' High & Low Weather Summary

 TemperatureHumidityPressure
High95 °F (Oct 8, 3:45 PM)100% (Oct 8, 5:46 AM)30.11 "Hg (Oct 8, 5:46 AM)
Low45 °F (Oct 21, 5:48 AM)10% (Oct 12, 3:54 PM)29.79 "Hg (Oct 8, 5:47 PM)
Average66 °F59%29.94 "Hg
* Reported Oct 8 3:46 AM — Oct 23 3:55 AM, Citrus Heights, Weather by CustomWeather, © 2014

Note: Actual official high and low records may vary slightly from our data, if they occured in-between our weather recording intervals... More about our weather records

Advertising

Citrus Heights weather history for previous 24 hours

 ConditionsComfort  
Time TempWeatherWind HumidityBarometerVisibility
3:55 AM
Oct 23
55 °FPassing clouds.6 mph63%30.01 "Hg10 mi
11:30 PM
Oct 22
57 °FPassing clouds.7 mph55%30.03 "Hg10 mi
10:47 PM57 °FPassing clouds.8 mph59%30.03 "Hg10 mi
9:45 PM63 °FPassing clouds.7 mph52%30.03 "Hg10 mi
8:47 PM63 °FPassing clouds.6 mph52%30.02 "Hg10 mi
6:46 PM66 °FScattered clouds.6 mph40%30.00 "Hg10 mi
5:45 PM72 °FScattered clouds.No wind31%30.00 "Hg10 mi
2:50 PM73 °FPartly sunny.No wind29%30.02 "Hg10 mi
1:46 PM72 °FPartly sunny.No wind33%30.03 "Hg10 mi
12:50 PM70 °FScattered clouds.5 mph38%30.06 "Hg10 mi
11:45 AM66 °FScattered clouds.No wind46%30.08 "Hg10 mi
10:45 AM63 °FScattered clouds.3 mph49%30.07 "Hg10 mi
9:55 AM59 °FScattered clouds.No wind59%30.06 "Hg10 mi
8:53 AM54 °FScattered clouds.No wind67%30.05 "Hg10 mi
7:45 AM45 °FPassing clouds.No wind87%30.03 "Hg10 mi
6:45 AM45 °FPassing clouds.3 mph87%30.03 "Hg10 mi
5:46 AM46 °FPassing clouds.3 mph87%30.03 "Hg10 mi
Weather by CustomWeather, © 2014

See weather overviewHow to use our weather pages